Back to catalog

IRIDE-MS2-HEO-1

AliveScienceSSO
NORAD 62697·PAYLOAD·🇮🇹 Italy

Launched Jan 14, 2025 from Vandenberg Space Force Base

Loading…

Next Passes (next 24 hours)

TLE

FreshSource: Space-Track

Epoch: Sep 14, 2026, 12:58 UTC

1 62697U 25009CS  26257.54057898  .00001101  00000-0  10674-3 0  9998
2 62697  97.6980 334.1749 0003677  78.8031 281.3602 14.94661725 90682

Track IRIDE-MS2-HEO-1 in real time with AllMySat

Download on the App Store